Weather History for Cork, Ireland

Change the Weather History Date:

Thursday, January 10, 2013

  Actual Average Record
Temperature  
Mean Temperature 42 °F -  
Max Temperature 48 °F 46 °F 55 °F (1998)
Min Temperature 37 °F 37 °F 28 °F (1999)
Degree Days  
Heating Degree Days 22    
Moisture  
Dew Point 41 °F    
Average Humidity 89    
Maximum Humidity 100    
Minimum Humidity 66    
Precipitation  
Precipitation 0.02 in 0.18 in - ()
Sea Level Pressure  
Sea Level Pressure 29.97 in    
Wind  
Wind Speed 9 mph ()    
Max Wind Speed 18 mph    
Max Gust Speed -    
Visibility 6.6 miles    
Events Rain    
Averages and records for this station are not official NWS values.
T = Trace of Precipitation, MM = Missing Value Source: Averaged Metar Reports

Daily Weather History Graph

Daily Weather History Graph

Search for Another Location

Airport:

Trip Planner

Search our weather history database for the weather conditions in past years. The results will help you decide how hot, cold, wet, or windy it might be!

Date:

Astronomy

Jan. 10, 2013 Rise Set
Actual Time 8:37 AM GMT 4:45 PM GMT
Civil Twilight 7:58 AM GMT 5:24 PM GMT
Nautical Twilight 7:15 AM GMT 6:07 PM GMT
Astronomical Twilight 6:35 AM GMT 6:48 PM GMT
Moon 7:04 AM GMT (1/10) 3:38 PM GMT (1/10)
Length of Visible Light 9h 26m
Length of Day
8h 07m
Waning Crescent, 3% of the Moon is Illuminated
Jan 10
Waning Crescent
Jan 11
New
Jan 18
First Quarter
Jan 27
Full
Feb 3
Last Quarter

Hourly Weather History & Observations

Time (GMT) Temp. Windchill Dew Point Humidity Pressure Visibility Wind Dir Wind Speed Gust Speed Precip Events Conditions
12:00 AM 43 °F - 40 °F 86% 30.02 in 12 mi SE 8.9 mph - -   Mostly Cloudy
12:00 AM 42.8 °F 37.5 °F 41.0 °F 93% 29.98 in 6.2 mi SE 9.2 mph - N/A   Mostly Cloudy
12:30 AM 42.8 °F 37.5 °F 41.0 °F 93% 29.98 in 6.2 mi ESE 9.2 mph - N/A   Mostly Cloudy
1:00 AM 42.8 °F 37.0 °F 41.0 °F 93% 29.98 in 6.2 mi SE 10.4 mph - N/A   Mostly Cloudy
1:30 AM 42.8 °F 37.0 °F 41.0 °F 93% 29.95 in 6.2 mi SE 10.4 mph - N/A   Mostly Cloudy
2:00 AM 42.8 °F 37.0 °F 41.0 °F 93% 29.95 in 6.2 mi ESE 10.4 mph - N/A   Mostly Cloudy
2:30 AM 42.8 °F 37.0 °F 41.0 °F 93% 29.95 in 6.2 mi SE 10.4 mph - N/A   Mostly Cloudy
3:00 AM 42.8 °F 38.0 °F 42.8 °F 100% 29.92 in 6.2 mi SE 8.1 mph - N/A   Mostly Cloudy
3:30 AM 44.6 °F 39.7 °F 42.8 °F 93% 29.92 in 6.2 mi SE 9.2 mph - N/A   Mostly Cloudy
4:00 AM 44.6 °F 38.8 °F 44.6 °F 100% 29.89 in 6.2 mi SE 11.5 mph - N/A   Mostly Cloudy
4:30 AM 46.4 °F 40.7 °F 44.6 °F 93% 29.89 in 6.2 mi SE 12.7 mph - N/A   Mostly Cloudy
5:00 AM 46.4 °F 40.7 °F 44.6 °F 93% 29.89 in 6.2 mi SSE 12.7 mph - N/A   Mostly Cloudy
5:30 AM 46.4 °F 40.4 °F 46.4 °F 100% 29.89 in 6.2 mi SSE 13.8 mph - N/A Rain Light Rain
6:00 AM 46.4 °F 40.7 °F 46.4 °F 100% 29.89 in 6.2 mi South 12.7 mph - N/A Rain Light Rain
6:30 AM 46.4 °F 40.7 °F 46.4 °F 100% 29.89 in 6.2 mi South 12.7 mph - N/A Rain Light Rain
7:00 AM 46.4 °F 41.9 °F 46.4 °F 100% 29.89 in 6.2 mi South 9.2 mph - N/A   Mostly Cloudy
7:30 AM 44.6 °F 39.2 °F 44.6 °F 100% 29.89 in 6.2 mi SSW 10.4 mph - N/A   Mostly Cloudy
8:00 AM 42.8 °F 37.5 °F 42.8 °F 100% 29.89 in 6.2 mi SW 9.2 mph - N/A   Partly Cloudy
8:30 AM 42.8 °F 37.5 °F 42.8 °F 100% 29.89 in 6.2 mi SW 9.2 mph - N/A   Partly Cloudy
9:00 AM 42.8 °F 37.0 °F 42.8 °F 100% 29.92 in 6.2 mi SW 10.4 mph - N/A   Scattered Clouds
9:30 AM 42.8 °F 37.5 °F 42.8 °F 100% 29.95 in 6.2 mi WSW 9.2 mph - N/A   Scattered Clouds
10:00 AM 44.6 °F 38.8 °F 44.6 °F 100% 29.95 in 6.2 mi WSW 11.5 mph - N/A   Partly Cloudy
10:30 AM 44.6 °F 39.2 °F 42.8 °F 93% 29.95 in 6.2 mi WSW 10.4 mph - N/A   Partly Cloudy
11:00 AM 46.4 °F 40.7 °F 42.8 °F 87% 29.95 in 6.2 mi West 12.7 mph - N/A   Partly Cloudy
11:30 AM 46.4 °F 40.7 °F 41.0 °F 81% 29.95 in 6.2 mi West 12.7 mph - N/A   Partly Cloudy
12:00 PM 46 °F - 39 °F 69% 29.98 in 22 mi West 17.9 mph - -   Partly Cloudy
12:00 PM 46.4 °F 39.2 °F 39.2 °F 76% 29.95 in 6.2 mi West 18.4 mph - N/A   Partly Cloudy
12:30 PM 46.4 °F 41.1 °F 39.2 °F 76% 29.95 in 6.2 mi West 11.5 mph - N/A   Partly Cloudy
1:00 PM 48.2 °F - 39.2 °F 71% 29.95 in 6.2 mi West 12.7 mph - N/A   Partly Cloudy
1:30 PM 48.2 °F - 37.4 °F 66% 29.95 in 6.2 mi West 15.0 mph - N/A   Partly Cloudy
2:00 PM 48.2 °F - 39.2 °F 71% 29.95 in 6.2 mi West 13.8 mph - N/A   Partly Cloudy
2:30 PM 48.2 °F - 37.4 °F 66% 29.98 in 6.2 mi West 12.7 mph - N/A   Partly Cloudy
3:00 PM 48.2 °F - 39.2 °F 71% 29.98 in 6.2 mi West 11.5 mph - N/A   Partly Cloudy
3:30 PM 46.4 °F 40.7 °F 37.4 °F 71% 29.98 in 6.2 mi West 12.7 mph - N/A   Partly Cloudy
4:00 PM 46.4 °F 41.5 °F 37.4 °F 71% 30.01 in 6.2 mi West 10.4 mph - N/A   Partly Cloudy
4:30 PM 44.6 °F 38.8 °F 37.4 °F 76% 30.01 in 6.2 mi WSW 11.5 mph - N/A   Partly Cloudy
5:00 PM 42.8 °F 37.5 °F 37.4 °F 81% 30.01 in 6.2 mi WSW 9.2 mph - N/A   Partly Cloudy
5:30 PM 42.8 °F 38.6 °F 37.4 °F 81% 30.01 in 6.2 mi West 6.9 mph - N/A   Partly Cloudy
6:00 PM 41 °F - 37 °F 79% 30.04 in 19 mi WSW 8.9 mph - -   Scattered Clouds
6:00 PM 41.0 °F 35.8 °F 37.4 °F 87% 30.01 in 6.2 mi WSW 8.1 mph - N/A   Partly Cloudy
6:30 PM 39.2 °F 33.6 °F 37.4 °F 93% 30.01 in 6.2 mi SW 8.1 mph - N/A   Partly Cloudy
7:00 PM 39.2 °F 33.0 °F 37.4 °F 93% 30.01 in 6.2 mi SW 9.2 mph - N/A   Partly Cloudy
7:30 PM 39.2 °F 33.6 °F 37.4 °F 93% 30.04 in - SW 8.1 mph - N/A   Clear
8:00 PM 41.0 °F 35.2 °F 37.4 °F 87% 30.04 in 6.2 mi WSW 9.2 mph - N/A   Partly Cloudy
8:30 PM 39.2 °F 33.0 °F 37.4 °F 93% 30.04 in 6.2 mi WSW 9.2 mph - N/A   Partly Cloudy
9:00 PM 39.2 °F 32.5 °F 39.2 °F 100% 30.04 in 6.2 mi SW 10.4 mph - N/A   Partly Cloudy
9:30 PM 39.2 °F 34.2 °F 39.2 °F 100% 30.04 in 6.2 mi WSW 6.9 mph - N/A   Partly Cloudy
10:00 PM 39.2 °F 35.9 °F 37.4 °F 93% 30.06 in 6.2 mi SW 4.6 mph - N/A   Partly Cloudy
10:30 PM 39.2 °F - 37.4 °F 93% 30.06 in 6.2 mi Calm Calm - N/A   Partly Cloudy
11:00 PM 37.4 °F 33.8 °F 37.4 °F 100% 30.06 in 6.2 mi SSW 4.6 mph - N/A   Partly Cloudy
11:30 PM 39.2 °F 37.0 °F 39.2 °F 100% 30.06 in 6.2 mi SSW 3.5 mph - N/A   Partly Cloudy